IRIDIUM 110 (43481 NORAD) Tracking and Keplerian Element Data

This shows tracking and keplerian element data for the satellite.

Feedback or suggestion? Click here.




ElementValue
Catalog43481
NameIRIDIUM 110
Epoch Orbit409
Epoch Day171.20900432
Epoch Year2018
RAAN228.1678
Inclination86.3991
Eccentricity0.0002721
Argument of Perigee100.2732
Mean Anonmoly259.8771
Mean Motion14.34218909
Decay Rate3E-07
L11 43481U 18047F 18171.20900432 .00000030 00000-0 37442-5 0 9996
L22 43481 86.3991 228.1678 0002721 100.2732 259.8771 14.34218909 4092

Live tracking and technical data element details for IRIDIUM 110 (NORAD 43481). IRIDIUM 110 can be tracked NOW for your location showing map with azimuth and elevation plus other details from your city location.

Track the satellite on the map from your city or location and see movement details for azimuth, elevation, latitude, longitude, range, height, and movement on the map or in text.







IsCatalogInMostPopularTable: catalog: 43481, numindb: 57
Update: records affected: 1



GetName: 43481 IRIDIUM 110

Hit Count: updated at: Sat, 17 Nov 2018 03:19:44 GMT